Weather History for MZBZ - March, 2014

Change the Weather History Date:

Sunday, March 30, 2014

  Actual Average Record
Temperature  
Mean Temperature 81 °F -  
Max Temperature 87 °F 87 °F 91 °F (2001)
Min Temperature 75 °F 73 °F 35 °F (2006)
Cooling Degree Days 16    
Growing Degree Days 31 (Base 50)    
Moisture  
Dew Point 74 °F    
Average Humidity 74    
Maximum Humidity 94    
Minimum Humidity 55    
Precipitation  
Precipitation 0.00 in 0.07 in - ()
Sea Level Pressure  
Sea Level Pressure 29.98 in    
Wind  
Wind Speed 5 mph ()    
Max Wind Speed 12 mph    
Max Gust Speed -    
Visibility 8.4 miles    
Events      
Averages and records for this station are not official NWS values.
T = Trace of Precipitation, MM = Missing Value Source: Averaged Metar Reports

Daily Weather History Graph

Daily Weather History Graph

Search for Another Location

Airport or City:

Trip Planner

Search our weather history database for the weather conditions in past years. The results will help you decide how hot, cold, wet, or windy it might be!

Date:

Astronomy

Mar. 30, 2014 Rise Set
Actual Time 5:49 AM CST 6:06 PM CST
Civil Twilight 5:27 AM CST 6:27 PM CST
Nautical Twilight 5:02 AM CST 6:53 PM CST
Astronomical Twilight 4:36 AM CST 7:18 PM CST
Moon 5:34 AM CST (3/30) 6:13 PM CST (3/30)
Length of Visible Light 13h 00m
Length of Day
12h 16m
Waning Crescent, 0% of the Moon is Illuminated
Mar 30
Waning Crescent
Mar 30
New
Apr 7
First Quarter
Apr 15
Full
Apr 22
Last Quarter

Hourly Weather History & Observations

Time (CST) Temp. Heat Index Dew Point Humidity Pressure Visibility Wind Dir Wind Speed Gust Speed Precip Events Conditions
12:00 AM 79 °F - 74 °F 81% 29.98 in 12 mi ESE 3.5 mph - -   Mostly Cloudy
3:00 AM 77 °F - 73 °F 85% 29.94 in 12 mi Calm Calm - -   Scattered Clouds
5:00 AM 77.0 °F - 73.4 °F 89% 29.94 in 6.2 mi ESE 3.5 mph - N/A   Partly Cloudy
6:00 AM 76 °F - 73 °F 88% 29.98 in 12 mi Calm Calm - -   Scattered Clouds
6:00 AM 75.2 °F - 73.4 °F 94% 29.97 in 6.2 mi Calm Calm - N/A   Partly Cloudy
7:00 AM 78.8 °F - 75.2 °F 89% 30.01 in 6.2 mi Calm Calm - N/A   Scattered Clouds
8:00 AM 82.4 °F 89.5 °F 75.2 °F 79% 30.03 in 6.2 mi East 6.9 mph - N/A   Mostly Cloudy
9:00 AM 88 °F - 74 °F 55% 30.04 in 12 mi East 8.1 mph - -   Partly Cloudy
9:00 AM 87.8 °F 95.6 °F 73.4 °F 62% 30.03 in 6.2 mi East 8.1 mph - N/A   Scattered Clouds
10:00 AM 86.0 °F 95.1 °F 75.2 °F 70% 30.04 in 6.2 mi East 9.2 mph - N/A   Scattered Clouds
11:00 AM 84.2 °F 92.3 °F 75.2 °F 74% 30.03 in 6.2 mi ENE 9.2 mph - N/A   Scattered Clouds
12:00 PM 87 °F - 75 °F 60% 30.01 in 14 mi ENE 10.4 mph - -   Partly Cloudy
12:00 PM 86.0 °F 95.1 °F 75.2 °F 70% 30.01 in 6.2 mi ENE 10.4 mph - N/A   Scattered Clouds
1:00 PM 86.0 °F 95.1 °F 75.2 °F 70% 29.98 in 6.2 mi East 8.1 mph - N/A   Scattered Clouds
2:00 PM 86.0 °F 95.1 °F 75.2 °F 70% 29.95 in 6.2 mi East 8.1 mph - N/A   Scattered Clouds
3:00 PM 87 °F - 75 °F 60% 29.95 in 12 mi ENE 10.4 mph - -   Partly Cloudy
3:00 PM 86.0 °F 95.1 °F 75.2 °F 70% 29.95 in 6.2 mi ENE 10.4 mph - N/A   Scattered Clouds
4:00 PM 86.0 °F 95.1 °F 75.2 °F 70% 29.94 in 6.2 mi ENE 11.5 mph - N/A   Partly Cloudy
5:00 PM 84.2 °F 92.3 °F 75.2 °F 74% 29.95 in 6.2 mi East 9.2 mph - N/A   Partly Cloudy
6:00 PM 83 °F - 74 °F 67% 29.96 in 12 mi East 6.9 mph - -   Scattered Clouds
6:00 PM 84.2 °F 90.9 °F 73.4 °F 70% 29.96 in 6.2 mi East 6.9 mph - N/A   Partly Cloudy
9:00 PM 79 °F - 75 °F 84% 30.01 in 12 mi 2.3 mph - -   Clear